Location: Pedholt
(56.0260°N, 10.2097°E)
Time: 08:23:41
(UTC+00:00)

Vanguard 3 - Pass Details

Date: 01 August 2021
Orbit: 510 x 3260 km, 33.4° (Epoch: 26 September)

Event Time Altitude Azimuth Distance (km) Brightness Sun altitude
Rises 22:27:09 0° 268° (W) 6,986 12.1 -15.2°
Reaches altitude 10° 22:33:28 10° 255° (WSW) 6,147 11.6 -15.4°
Maximum altitude 22:45:50 21° 216° (SW) 5,211 10.8 -15.7°
Enters shadow 22:53:12 16° 189° (S) 5,329 10.7 -15.9°
